Вернуться в каталог

CZ-3C DEB

LostHEO
NORAD 48549·DEBRIS·🇨🇳 China

Запущен Feb 24, 2012 с Xichang Satellite Launch Center

Loading…

Ближайшие Пролёты (ближайшие 24 часа)

TLE

УстаревшееSource: Space-Track

Эпоха: Feb 23, 2024, 23:15 UTC

1 48549U 12008AU  24054.96883400  .00000985  00000-0  11647-2 0  9997
2 48549  21.8390 321.6105 6966416 273.0508  16.2113  2.62604945 88598

Отслеживайте CZ-3C DEB в реальном времени с AllMySat

Download on the App Store